COSMOS 2188

Satellite information

Favourite Embed

Satellite Type and Status

PAYLOADIN ORBIT

Key statistics

Satellite COSMOS 2188 at a glance.

Uptime

12025

Days in orbit

Revolutions

≈ 12.6

Per day

Orbit

LEO

Low Earth Orbit

Inclination

74.0

Latest

Satellite identification and parameters

Extended collection of information and parameters for COSMOS 2188.

Object identification

Identified? True

Debris? False

Object name: COSMOS 2188

International designator: 1992-030B

Object number (NORAD): 21977

Object ID (CCSDS): 21977

Country: COMMONWEALTH OF INDEPENDENT STATES (CIS)

Current information (Y/N): Y

RCS size: MEDIUM

Orbital parameters

Period: 114.509 minutes

Inclination: 74.0032 deg

SMA: 7811.232 km

Apoapsis: 1478.387 km

Periapsis: 1387.806 km

RAAN: 242.923 deg

Eccentricy: 0.0057981

Argument of periapsis: 168.5637 deg

Mean anomaly: 299.2264 deg

Mean motion: 12.57544879 rev/day

Mean motion (dot): -0.00000005 rev/day2

B* drag term: 0.000068293 1/REarth

Two-line elements (TLE)

Creation date: May 6, 2025, 3:54 a.m.

Reference frame: TEME

Reference center: EARTH

Epoch: May 5, 2025, 3:58 p.m. UTC

TLE line 0: 0 COSMOS 2188

TLE line 1: 1 21977U 92030B 25125.66579672 -.00000005 00000-0 68293-4 0 9991

TLE line 2: 2 21977 74.0032 242.9230 0057981 168.5637 299.2264 12.57544879511241

Live tracking on map

Real-time ground track for satellite COSMOS 2188.

In-orbit conjunctions

There are no conjunctions computed for COSMOS 2188, at the moment. Check back to stay up to date, as we update our databases every day.

Go to all conjunctions

Associated space launch

Military communications satellites

COSMOS 2188 was lifted into orbit during the mission ‘Kosmos-3M | Strela-1M 361-368’, on board a Kosmos-3M space rocket.

The launch took place on June 3, 1992, 12:50 a.m. from 133/3 (133L).

For more information about the launch, click the button.

Launch to space Kosmos-3M | Strela-1M 361-368
Kosmos-3M | Strela-1M 361-368

Agency: N/A

Status: Launch Successful

Launch date: June 3, 1992, 12:50 a.m. UTC

Rocket: Kosmos-3M

Launch pad: 133/3 (133L)

Location: Plesetsk Cosmodrome, Russian Federation

...

Latest news about this satellite

There are no fresh news available about this satellite. Check back as we update our databases every day.


Newsletter sign-up

Weekly statistics, charts and insights to help you stay on top of the space industry.